CST,Max TemperatureF,Mean TemperatureF,Min TemperatureF,Max Dew PointF,MeanDew PointF,Min DewpointF,Max Humidity, Mean Humidity, Min Humidity, Max Sea Level PressureIn, Mean Sea Level PressureIn, Min Sea Level PressureIn, Max VisibilityMiles, Mean VisibilityMiles, Min VisibilityMiles, Max Wind SpeedMPH, Mean Wind SpeedMPH, Max Gust SpeedMPH,PrecipitationIn, CloudCover, Events, WindDirDegrees
2012-11-1,60,50,40,41,38,35,91,67,47,29.99,29.97,29.93,10,9,7,12,5,17,0.00,1,,3
2012-11-2,55,46,37,37,31,27,91,62,35,30.07,29.98,29.92,10,10,7,14,9,18,0.00,0,,68
2012-11-3,53,42,30,34,31,28,92,68,44,30.21,30.16,30.07,10,10,10,9,4,,0.00,1,,324
2012-11-4,59,49,39,45,37,32,96,67,44,30.18,30.10,30.00,10,10,4,16,5,22,0.07,6,Rain,168
2012-11-5,46,44,41,45,42,40,99,97,93,30.14,30.09,30.01,5,2,0,21,11,26,0.00,8,Fog,327
2012-11-6,57,48,38,40,34,29,97,68,34,30.08,30.01,29.95,10,8,2,26,12,37,0.00,2,,284
2012-11-7,53,42,31,34,31,28,90,67,43,30.19,30.10,30.03,10,10,10,12,6,,0.00,0,,213
2012-11-8,67,53,39,39,35,32,78,57,31,30.04,29.92,29.85,10,10,10,18,12,24,0.00,0,,149
2012-11-9,68,56,43,57,48,39,87,72,54,29.86,29.77,29.65,10,10,10,16,8,21,0.00,0,,120
2012-11-10,76,67,54,58,56,52,94,68,47,29.65,29.59,29.50,10,10,7,29,19,41,0.30,2,Rain-Thunderstorm,173
2012-11-11,49,36,23,48,23,15,99,75,52,30.17,29.95,29.65,10,9,2,24,17,32,0.02,4,Rain,307
2012-11-12,41,32,22,18,16,15,75,55,35,30.38,30.28,30.18,10,10,10,23,9,30,0.00,0,,269
2012-11-13,52,38,23,34,26,17,81,61,39,30.38,30.32,30.25,10,10,10,13,6,,0.00,0,,157
2012-11-14,58,46,34,30,28,22,75,53,25,30.32,30.26,30.20,10,10,10,16,10,23,0.00,0,,174
2012-11-15,59,48,37,33,31,29,78,55,31,30.43,30.29,30.19,10,10,10,15,8,16,0.00,3,,335
2012-11-16,56,42,28,35,31,25,87,68,41,30.46,30.39,30.30,10,10,10,12,5,,0.00,0,,123
2012-11-17,61,50,39,36,33,28,81,57,33,30.32,30.24,30.16,10,10,10,22,12,30,0.00,1,,156
2012-11-18,62,52,41,38,32,27,67,48,32,30.17,30.11,30.04,10,10,10,22,14,30,0.00,3,Rain,154
2012-11-19,62,52,42,43,38,36,83,63,40,30.11,30.05,30.02,10,10,10,15,11,20,0.00,0,,230
2012-11-20,64,48,32,39,35,31,96,64,29,30.24,30.17,30.11,10,9,5,10,5,,0.00,0,,203
2012-11-21,73,57,41,45,40,35,78,56,30,30.13,30.00,29.82,10,10,10,28,14,34,0.00,0,,175
2012-11-22,62,50,38,48,39,30,79,61,39,30.24,29.93,29.74,10,10,10,29,14,36,0.00,0,,267
2012-11-23,41,31,21,30,13,8,67,53,34,30.49,30.41,30.23,10,10,10,25,15,41,0.00,1,,310
2012-11-24,45,32,19,25,17,10,75,53,33,30.38,30.08,29.86,10,10,10,20,6,26,0.00,0,,157
2012-11-25,43,37,31,28,27,24,82,66,54,30.13,29.98,29.86,10,10,10,10,5,,0.00,1,,336
2012-11-26,34,27,19,28,21,12,88,72,56,30.45,30.33,30.14,10,9,2,13,5,17,0.00,4,Snow,4
2012-11-27,43,28,14,24,20,11,88,67,46,30.43,30.28,30.18,10,10,10,20,8,24,0.00,0,,198
2012-11-28,47,35,23,29,26,22,94,69,40,30.38,30.26,30.10,10,9,3,15,6,20,0.00,0,,166
2012-11-29,55,44,32,37,33,28,90,70,50,30.10,29.99,29.92,10,10,10,10,7,,0.00,0,,160
2012-11-30,45,38,31,33,31,27,88,77,59,30.09,30.02,29.94,10,8,5,13,6,,0.00,0,,327